荣威车友会 关注本版
主帖数:5617 回帖数:1万
  • 本版介绍

本版介绍:

开版时间:2013年02月04日

  • 推广链接:
斑竹:听风岁月
 标题 作者 点击 回复 回复时间
有你陪伴真好 rapidity打酱油 1 0 08-19 16:17
提车荣威i6 不一样的体验 晴朗在_depositi 1 0 08-19 16:11
开着i6嗨起来! subscrip小佐 1 0 08-19 16:07
提车一周,谈谈我的用车感受 最后一页77 1 0 08-19 16:03
看车试驾,最终订了下来~ 辣椒殳_regulate 1 0 08-19 15:58
高端大气上档次,低调奢华有内涵 kineticshsh 1 0 08-19 15:54
分享荣威i6的驾驶体验! consulxixi 1 0 08-19 15:50
新的陪伴,我的爱车荣威小六! deposit红莲人形 1 0 08-19 15:45
汽车也需要养护 end土狗刀刀陆 1 0 08-19 15:39
带着我的小6去保养咯 璐过留痕酆_can 1 0 08-19 15:35
终于选到了心仪的车 哈哈呵ascertai 1 0 08-19 15:28
细说一下我家荣威i6给我的点点惊喜! 想忘记应33 1 0 08-19 15:26
荣威i6选车经历 潇湘枫雨inertia 1 0 08-19 15:23
荣威i6-城市中那道靓丽的风景线 energeti浩然山 1 0 08-19 15:20
互联网高科技,这就是荣威i6 quarterl一爱一 1 0 08-19 15:15
车子开起来很赞 试驾回来很满意! 谢谢你的_tease 1 0 08-19 15:13
不一样的自驾游 grateful殇铭明 1 0 08-19 15:09
不仅仅只是代步车--我的荣威i6 东方思reckless 1 0 08-19 15:05
我的爱车,荣威RX5 讯合优车fighter 1 0 08-19 15:02
荣威RX5上班路上的好助手 陶歌烬relay 1 0 08-19 14:56
开车带老婆出去玩偶遇朋友 inaccuraisis 1 0 08-19 14:51
性价比高的不二之选 柴利雨bacteriu 1 0 08-19 14:48
荣威RX5,我的第一辆新车 obedienttgtg 1 0 08-19 14:43
想入手一台荣威RX5,请大家帮忙做个参考 awakeqtqt 1 0 08-19 14:38
老舅的新车-荣威RX5 焦点访谈邵33 1 0 08-19 14:33
荣威要出新品RX3了,一起来看一看 一撸向北撸55 1 0 08-19 14:29
荣威RX3看着还不错,不知真正上市后怎么样? proficie豆豆葛 1 0 08-19 14:25
有幸参加了深圳荣威eRX5车友会,说说参加感想 南柯pant5 1 0 08-19 14:22
第一次参加车友会,激动中…… migrate船过水无 1 0 08-19 14:15
难得凑在一起,还不可劲嗨? reconcil可爱小 1 0 08-19 14:10
RX5我心中的女神~终于提车了 deviatio心理咨 4 1 08-18 19:36
荣威入门级紧凑SUV车型RX3将在成都车展亮相 燃瞿33 4 0 08-18 19:31
8月成都车展最期待的就是RX3 幻海雨夜衡66 38 0 08-18 19:28
荣威还是比亚迪,新能源汽车市场谁才是霸主 远东二中怀33 5 1 08-18 19:24
找到了第二个老婆我的爱车i6 梦花飘雪77 2 0 08-18 19:17
网上看了这么多还是实体店看一下吧 西楼月如勾尤11 2 0 08-18 19:14
人生第一辆车选择i6,明智! 暗夜深狱暗夜深5 2 0 08-18 19:10
蛮感兴趣的看了车就提回家了~ 身体太绕卓00 2 0 08-18 19:07
看车之旅,省油的i6我喜欢! fake美好未来何 4 0 08-18 19:03
冲着互联网这种功能去看车 墨小调贡_wring 48 0 08-18 19:00
最终敲定荣威RX5 说说我的看法 黄爱飞厍66 4 0 08-18 16:19
提回来高颜值的荣威RX5 殇夏无伤11 5 0 08-18 16:14
上下班的最佳伴侣——荣威RX5 transact般若风 3 0 08-18 16:09
晒晒我新买的荣威RX5 forersrs 3 0 08-18 16:05
车子到家一个星期 相处融洽的磨合期 把酒封杯云nut 2 0 08-18 16:00
荣威RX3满足了我对选车的基本需求,准备等等看 东海独_generate 7 0 08-18 15:55
期待荣威RX3能早日上市 quartz冯绒绒 3 0 08-18 15:52
一定要挑选一辆自己满意的车子 揮霍小advertis 3 0 08-18 15:50
自主品牌的新能源汽车 小混侠瞿88 3 0 08-18 15:48
有对比才有前进的动力 独爱pumpkin 5 0 08-18 15:44
到底该选谁,比亚迪宋跟荣威erx5 般若风情climax 5 1 08-18 15:41
环保与科技相结合 cruelty我是小钱 1 0 08-18 15:36
新手驾驶荣威i6的威海自驾游 resultan龙魂桂 4 0 08-18 15:34
开着荣威i6,带着孩子去黑山谷咯! 便便有牙_carry 5 0 08-18 15:28
终于拥有一台自己喜爱的汽车 uncertaigege 2 0 08-18 15:22
正式加入荣威大家庭 标马向44 1 0 08-18 15:17
愈来愈爱,我的荣威i6 非典型狂trifle 3 0 08-18 15:13
新成员成功进驻我家-荣威i6提车记 integritmlml 1 0 08-18 14:44
我的青春我做主,荣威i6提车 爽朗的firmness 3 0 08-18 14:39
荣威i6提车作业 violateococ 1 0 08-18 14:34
论节油哪家行,还是选荣威 integrat一无所 1 0 08-18 14:28
看车记,越看越纠结 快乐小刀_inject 2 0 08-18 14:23
记忆深刻的提车作业 侯占彬superfic 4 0 08-18 14:18
给大家分享一下我的代步车,荣威i6 竹园是我77 4 0 08-18 14:10
搞定岳母的搬家利器——值得我骄傲的荣威I6 nickname做那最 3 0 08-18 13:59
打破世界纪录的Dream Car,我的靓车“荣威I6” 请有爱_inlet 44 0 08-18 13:54
策马奔腾,与荣威i6踏上草原之旅! discours虾嬷嬷 2 0 08-18 13:48
带着小爱六又来自驾游了 garlic半个世纪 3 0 08-18 13:43
兼具实力的颜值担当,荣威I6锐不可当 涵支_corrupt 3 0 08-18 13:30
新车到手,给大家伙晒晒~ 清风馆主11 36 0 08-18 13:25
简简单单才是真,不要钱的360开着就是爽! 我是恋晨韦22 5 0 08-17 22:30
买RX5是我做的最正确的一个选择 高山仰_confiden 6 0 08-17 20:56
上汽荣威RX3曝光将在成都露面 tackle少凤田 5 0 08-17 20:53
RX3要在成都车展面世! 就是我韶_wrench 5 0 08-17 20:50
为了环保我选择新能源汽车~ bugle阿迪安娜麻 7 0 08-17 20:46
荣威i6作为国产车,性价比还是挺高 小店铺_flavour 7 0 08-17 20:43
荣威i6是国产车中的NO1!就要选他 蚊蚊倪_tensile 7 0 08-17 20:40
去看看i6,外观能迷死我 kinetictptp 5 0 08-17 20:36
红色的i6让我着迷~ marshal柠檬淡茶 3 0 08-17 20:33
等了好久好久终于提到我的小6了 张馨艺_prevalen 3 0 08-17 20:30